Raton, NM

8:25 AM MDT on June 28, 2017 (GMT -0600)
Raton Municipal-Crews

Weather History for KRTN - May, 2013

Change the Weather History Date:

Wednesday, May 1, 2013

  Actual Average (KTAD) Record (KTAD)
Temperature  
Mean Temperature 42 °F -  
Max Temperature 55 °F 68 °F 91 °F (1992)
Min Temperature 28 °F 38 °F 22 °F (1991)
Degree Days  
Heating Degree Days 24    
Moisture  
Dew Point 27 °F    
Average Humidity 57    
Maximum Humidity 75    
Minimum Humidity 37    
Precipitation  
Precipitation 0.00 in - - ()
Sea Level Pressure  
Sea Level Pressure 30.03 in    
Wind  
Wind Speed 20 mph (NNE)    
Max Wind Speed 30 mph    
Max Gust Speed 41 mph    
Visibility 9 miles    
Events Snow    
Averages and records for this station are not official NWS values.
T = Trace of Precipitation, MM = Missing Value Source: NWS Daily Summary

Daily Weather History Graph

Daily Weather History Graph

Search for Another Location

Airport or City:

Trip Planner

Search our weather history database for the weather conditions in past years. The results will help you decide how hot, cold, wet, or windy it might be!

Date:

Astronomy

May. 01, 2013 Rise Set
Actual Time 6:03 AM MDT 7:46 PM MDT
Civil Twilight 5:36 AM MDT 8:14 PM MDT
Nautical Twilight 5:02 AM MDT 8:48 PM MDT
Astronomical Twilight 4:26 AM MDT 9:24 PM MDT
Moon 12:57 AM MDT (5/1) 11:44 AM MDT (5/1)
Length of Visible Light 14h 38m
Length of Day
13h 43m
Waning Gibbous, 58% of the Moon is Illuminated
May 1
Waning Gibbous
May 2
Last Quarter
May 9
New
May 17
First Quarter
May 24
Full

Hourly Weather History & Observations

Time (MDT) Temp. Windchill Dew Point Humidity Pressure Visibility Wind Dir Wind Speed Gust Speed Precip Events Conditions
12:53 AM 55.0 °F - 34.0 °F 45% 29.61 in 10.0 mi NNE 15.0 mph - N/A   Clear
1:53 AM 50.0 °F - 35.1 °F 57% 29.64 in 10.0 mi North 24.2 mph - N/A   Clear
2:53 AM 46.9 °F - 35.1 °F 63% 29.65 in 10.0 mi North 24.2 mph 32.2 mph N/A   Clear
3:53 AM 46.0 °F 38.8 °F 35.1 °F 66% 29.69 in 10.0 mi North 18.4 mph 28.8 mph N/A   Clear
4:53 AM 46.0 °F 38.5 °F 34.0 °F 63% 29.72 in 10.0 mi North 19.6 mph 25.3 mph N/A   Clear
5:53 AM 43.0 °F 36.4 °F 32.0 °F 65% 29.77 in 10.0 mi NNE 12.7 mph - N/A   Clear
6:53 AM 39.9 °F 32.1 °F 28.0 °F 63% 29.81 in 10.0 mi NE 13.8 mph 25.3 mph N/A   Clear
7:53 AM 43.0 °F 36.4 °F 27.0 °F 53% 29.87 in 10.0 mi NNE 12.7 mph 19.6 mph N/A   Clear
8:53 AM 45.0 °F 37.1 °F 28.0 °F 52% 29.90 in 10.0 mi NNE 19.6 mph 29.9 mph N/A   Clear
9:53 AM 46.9 °F - 28.9 °F 50% 29.91 in 10.0 mi North 21.9 mph 28.8 mph N/A   Clear
10:53 AM 51.1 °F - 28.9 °F 43% 29.89 in 10.0 mi North 17.3 mph 25.3 mph N/A   Clear
11:53 AM 53.1 °F - 30.0 °F 41% 29.89 in 10.0 mi NE 24.2 mph 38.0 mph N/A   Clear
12:53 PM 55.0 °F - 28.9 °F 37% 29.94 in 10.0 mi NNW 13.8 mph 41.4 mph N/A   Clear
1:53 PM 53.1 °F - 30.9 °F 43% 29.96 in 10.0 mi NE 20.7 mph 29.9 mph N/A   Clear
2:53 PM 52.0 °F - 30.0 °F 43% 29.98 in 10.0 mi NE 25.3 mph 31.1 mph N/A   Clear
3:53 PM 51.1 °F - 30.0 °F 44% 29.99 in 9.0 mi NE 24.2 mph 31.1 mph N/A   Clear
4:53 PM 46.0 °F 36.9 °F 28.9 °F 51% 30.05 in 8.0 mi NNE 28.8 mph 33.4 mph N/A   Partly Cloudy
5:53 PM 39.9 °F 28.4 °F 25.0 °F 55% 30.13 in 10.0 mi NNE 29.9 mph 39.1 mph N/A   Mostly Cloudy
6:34 PM 37.4 °F 25.9 °F 24.8 °F 60% 30.24 in 10.0 mi NE 25.3 mph 35.7 mph N/A   Overcast
6:53 PM 37.0 °F 27.7 °F 24.1 °F 59% 30.22 in 10.0 mi NNE 16.1 mph 34.5 mph N/A   Overcast
7:14 PM 35.6 °F 23.7 °F 24.8 °F 65% 30.26 in 7.0 mi North 24.2 mph 29.9 mph 0.00 in Snow Light Snow
7:53 PM 32.0 °F 19.8 °F 21.9 °F 66% 30.28 in 10.0 mi North 20.7 mph 31.1 mph 0.00 in   Overcast
8:45 PM 30.2 °F 15.4 °F 21.2 °F 69% 30.34 in 3.0 mi North 28.8 mph 38.0 mph 0.00 in Snow Light Snow
8:53 PM 28.9 °F 13.5 °F 21.9 °F 75% 30.33 in 2.5 mi North 29.9 mph 38.0 mph 0.00 in Snow Light Snow
9:05 PM 28.4 °F 14.1 °F 21.2 °F 74% 30.35 in 2.5 mi North 24.2 mph 36.8 mph 0.00 in Snow Light Snow
9:12 PM 30.2 °F 16.2 °F 21.2 °F 69% 30.34 in 6.0 mi North 25.3 mph 36.8 mph 0.00 in Snow Light Snow
9:53 PM 28.9 °F 14.5 °F 19.0 °F 67% 30.34 in 10.0 mi North 25.3 mph 33.4 mph 0.00 in   Overcast
10:53 PM 28.9 °F 15.8 °F 17.1 °F 61% 30.36 in 10.0 mi North 20.7 mph 28.8 mph N/A   Overcast
11:53 PM 28.0 °F 13.3 °F 17.1 °F 63% 30.36 in 10.0 mi North 25.3 mph - N/A   Scattered Clouds